Location: Richford
(44.0236°N, 89.4354°W)
Time: 15:49:38
(UTC+00:00)

Envisat - Visible Passes

Search period start: 19 May 2022 00:00
Search period end: 29 May 2022 00:00
Orbit: 764 x 765 km, 98.2° (Epoch: 18 May)

Date Brightness Start Highest point End Pass type
(mag) Time Alt. Az. Time Alt. Az. Time Alt. Az.
19 May 5.8 09:14:41 10° ENE 09:17:06 13° E 09:19:30 10° ESE visible
21 May 5.4 09:38:34 10° NE 09:42:34 23° E 09:46:33 10° SE visible
22 May 6.2 09:05:00 10° E 09:05:12 10° E 09:05:23 10° E visible
24 May 5.6 09:27:15 10° NE 09:30:43 18° E 09:34:08 10° SE visible
27 May 5.7 09:16:09 10° ENE 09:18:48 14° E 09:21:28 10° ESE visible
